Content
SEND FEEDBACK

Daily
Averages
Monthly
Summary
United States of America

ARGONNE, WISCONSIN


Home > North America > United States > Wisconsin
Elevation: 1539 feet     Latitude: 45 46N     Longitude: 088 41W

WEATHER
 
SELECT A DAY
Number of Records: 212,546;   Date Range: 1/1/95 - 7/20/14
 
SHARE

PRINT THIS DATA

[ ← Previous Day ]
WEATHER ALMANAC - FEBRUARY 13, 2013
[ Next Day → ]
[ °C ]   °F
Weather ElementAverageHighLow
Temperature26.7 °F39 °F (2:54 pm)9 °F (1:54 am)
Dewpoint20.1 °F26.1 °F (5:54 pm)6.1 °F (1:54 am)
Humidity77.6 %92 % (2:54 am)55 % (2:54 pm)
Barometer29.66 in29.73 in (1:54 am)29.62 in (3:54 pm)
Wind Speed1.1 mph4.6 mph (7:54 am)
Weather ElementAverage
Visibility9.4 mi
Wind DirectionENE (72.6 °)

Weather ElementTotal
Precipitation---
Heating Degree Days41 (Base 65)
Averaged from 23 records on February 13, 2013
WEATHER CONDITIONS BREAKOUT
WIND DIRECTION BREAKOUT
WEATHER BY HOUR - FEBRUARY 13, 2013
[ °C ]   °F
Local TimeTemperatureDewpointHumidityBarometerVisibilityWind DirectionWind SpeedGust SpeedPrecipitationEventsConditions
1:54 AM9.0 °F6.1 °F88 %29.73 in8.0 miCalmScattered Clouds
2:54 AM9.0 °F7.0 °F92 %29.71 in8.0 miCalmMostly Cloudy
3:54 AM12.0 °F10.0 °F92 %29.71 in9.0 miCalmPartly Cloudy
4:54 AM12.0 °F10.0 °F92 %29.70 in7.0 miCalmMostly Cloudy
5:54 AM19.9 °F17.1 °F89 %29.69 in9.0 miCalmOvercast
6:54 AM21.0 °F18.0 °F88 %29.69 in9.0 miWest (280°)3.5 mphOvercast
7:54 AM21.9 °F18.0 °F85 %29.69 in8.0 miNW (310°)4.6 mphOvercast
8:54 AM25.0 °F21.0 °F85 %29.68 in9.0 miCalmOvercast
9:54 AM27.0 °F21.0 °F78 %29.67 in10.0 miWest (280°)3.5 mphOvercast
10:54 AM30.0 °F21.9 °F72 %29.67 in10.0 miCalmOvercast
11:54 AM34.0 °F23.0 °F64 %29.65 in10.0 miCalmOvercast
12:54 PM37.0 °F23.0 °F57 %29.64 in10.0 miCalmOvercast
1:54 PM37.9 °F24.1 °F57 %29.64 in10.0 miCalmOvercast
2:54 PM39.0 °F24.1 °F55 %29.63 in10.0 miCalmOvercast
3:54 PM39.0 °F24.1 °F55 %29.62 in10.0 miSSW (200°)4.6 mphMostly Cloudy
4:54 PM37.0 °F24.1 °F59 %29.62 in10.0 miCalmClear
5:54 PM33.1 °F26.1 °F75 %29.62 in10.0 miCalmScattered Clouds
6:54 PM33.1 °F25.0 °F72 %29.64 in10.0 miWSW (250°)4.6 mphClear
7:54 PM30.0 °F24.1 °F79 %29.64 in10.0 miCalmPartly Cloudy
8:54 PM26.1 °F21.9 °F84 %29.64 in10.0 miCalmClear
9:54 PM26.1 °F23.0 °F88 %29.63 in10.0 miCalmPartly Cloudy
10:54 PM28.9 °F26.1 °F89 %29.63 in10.0 miNorth (350°)3.5 mphOvercast
11:54 PM27.0 °F24.1 °F89 %29.63 in10.0 miCalmOvercast
Hourly data recorded from KIMT, located miles away from Argonne, Wisconsin







STORIES FROM OUR PARTNERS